STARLINK-3900 (52461 NORAD) Tracking and Keplerian Element Data

This shows tracking and keplerian element data for the satellite.

Feedback or suggestion? Click here.




ElementValue
Catalog52461
NameSTARLINK-3900
Epoch Orbit1069
Epoch Day193.25001157
Epoch Year2022
RAAN295.5115
Inclination53.2174
Eccentricity0.0003585
Argument of Perigee4.6986
Mean Anonmoly89.0844
Mean Motion15.73082557
Decay Rate-0.00968821
L11 52461U 22049L 22193.25001157 -.00968821 00000+0 -76338-2 0 9997
L22 52461 53.2174 295.5115 0003585 4.6986 89.0844 15.73082557 10696

Live tracking and technical data element details for STARLINK-3900 (NORAD 52461). STARLINK-3900 can be tracked NOW for your location showing map with azimuth and elevation plus other details from your city location.

Track the satellite on the map from your city or location and see movement details for azimuth, elevation, latitude, longitude, range, height, and movement on the map or in text.







IsCatalogInMostPopularTable: catalog: 52461, numindb: 8
Update: records affected: 1



GetName: 52461 STARLINK-3900

Hit Count: updated at: Sun, 14 Aug 2022 01:39:19 GMT